TimeEDT,TemperatureF,Dew PointF,Humidity,Sea Level PressureIn,VisibilityMPH,Wind Direction,Wind SpeedMPH,Gust SpeedMPH,PrecipitationIn,Events,Conditions,WindDirDegrees,DateUTC
12:53 AM,79.0,73.9,84,29.94,10.0,SE,5.8,-,N/A,,Scattered Clouds,140,2012-09-18 04:53:00
1:53 AM,78.1,73.0,84,29.93,10.0,SSE,5.8,-,N/A,,Partly Cloudy,150,2012-09-18 05:53:00
2:53 AM,78.1,73.9,87,29.91,10.0,SSE,6.9,-,N/A,,Scattered Clouds,150,2012-09-18 06:53:00
3:53 AM,78.1,73.9,87,29.90,10.0,South,6.9,-,N/A,,Scattered Clouds,170,2012-09-18 07:53:00
4:53 AM,77.0,73.9,90,29.89,10.0,South,9.2,-,N/A,,Scattered Clouds,170,2012-09-18 08:53:00
5:29 AM,77.0,73.4,89,29.90,10.0,SSE,6.9,-,N/A,,Mostly Cloudy,160,2012-09-18 09:29:00
5:53 AM,78.1,73.9,87,29.89,10.0,South,5.8,-,N/A,,Mostly Cloudy,170,2012-09-18 09:53:00
6:17 AM,78.8,73.4,83,29.90,10.0,South,8.1,-,N/A,,Mostly Cloudy,170,2012-09-18 10:17:00
6:47 AM,78.8,73.4,83,29.89,10.0,SSE,6.9,-,N/A,,Partly Cloudy,160,2012-09-18 10:47:00
6:53 AM,78.1,73.9,87,29.90,10.0,SSE,6.9,-,N/A,,Scattered Clouds,160,2012-09-18 10:53:00
7:53 AM,78.1,75.0,90,29.91,10.0,South,3.5,-,0.01,,Mostly Cloudy,180,2012-09-18 11:53:00
8:01 AM,78.8,75.2,89,29.92,0.8,SW,10.4,-,0.00,Rain,Light Rain,230,2012-09-18 12:01:00
8:04 AM,78.8,75.2,89,29.92,0.5,SW,9.2,-,0.12,Fog-Rain-Thunderstorm,Heavy Thunderstorms and Rain,220,2012-09-18 12:04:00
8:09 AM,75.2,73.4,94,29.91,0.2,South,12.7,-,0.34,Fog-Rain-Thunderstorm,Heavy Thunderstorms and Rain,190,2012-09-18 12:09:00
8:15 AM,75.2,73.4,94,29.91,1.0,South,9.2,-,0.49,Rain-Thunderstorm,Thunderstorms and Rain,180,2012-09-18 12:15:00
8:18 AM,77.0,73.4,89,29.91,3.0,South,10.4,-,0.49,Rain-Thunderstorm,Light Thunderstorms and Rain,190,2012-09-18 12:18:00
8:27 AM,78.8,73.4,83,29.91,10.0,South,9.2,-,0.49,Rain,Light Rain,190,2012-09-18 12:27:00
8:53 AM,80.1,75.9,87,29.92,10.0,South,8.1,-,0.49,,Mostly Cloudy,180,2012-09-18 12:53:00
9:53 AM,79.0,73.9,84,29.92,10.0,SSE,4.6,-,0.02,,Mostly Cloudy,150,2012-09-18 13:53:00
10:36 AM,75.2,71.6,89,29.94,3.0,South,10.4,23.0,0.03,Rain-Thunderstorm,Light Thunderstorms and Rain,190,2012-09-18 14:36:00
10:53 AM,79.0,73.9,84,29.94,10.0,SSW,9.2,-,0.03,,Mostly Cloudy,210,2012-09-18 14:53:00
11:00 AM,78.8,73.4,83,29.94,10.0,South,13.8,21.9,N/A,Thunderstorm,Thunderstorm,190,2012-09-18 15:00:00
11:53 AM,77.0,71.1,82,29.95,10.0,South,19.6,27.6,N/A,Thunderstorm,Thunderstorm,190,2012-09-18 15:53:00
12:53 PM,75.9,71.1,85,29.95,10.0,South,9.2,-,0.02,,Mostly Cloudy,190,2012-09-18 16:53:00
1:00 PM,77.0,71.6,83,29.95,10.0,SSW,11.5,-,N/A,Thunderstorm,Thunderstorm,200,2012-09-18 17:00:00
1:53 PM,77.0,72.0,84,29.95,5.0,West,12.7,23.0,0.02,Rain,Light Rain,280,2012-09-18 17:53:00
2:00 PM,75.2,71.6,89,29.95,4.0,WNW,9.2,19.6,0.00,Rain,Light Rain,300,2012-09-18 18:00:00
2:09 PM,75.2,71.6,89,29.95,4.0,NW,8.1,-,0.05,Rain,Light Rain,320,2012-09-18 18:09:00
2:19 PM,75.2,73.4,94,29.95,3.0,WNW,12.7,21.9,0.07,Rain,Light Rain,290,2012-09-18 18:19:00
2:47 PM,77.0,71.6,83,29.93,5.0,West,9.2,19.6,0.17,Rain,Light Rain,280,2012-09-18 18:47:00
2:53 PM,75.9,70.0,82,29.91,5.0,West,8.1,19.6,0.17,Rain,Light Rain,270,2012-09-18 18:53:00
3:53 PM,75.9,73.0,91,29.92,10.0,SW,5.8,-,0.02,,Overcast,220,2012-09-18 19:53:00
4:53 PM,79.0,72.0,79,29.91,10.0,WSW,4.6,-,N/A,,Overcast,240,2012-09-18 20:53:00
5:53 PM,79.0,71.1,77,29.90,10.0,South,5.8,-,N/A,,Overcast,190,2012-09-18 21:53:00
6:53 PM,78.1,73.0,84,29.89,10.0,SSE,3.5,-,N/A,,Overcast,150,2012-09-18 22:53:00
7:53 PM,77.0,73.9,90,29.90,10.0,South,4.6,-,N/A,,Overcast,170,2012-09-18 23:53:00
8:03 PM,77.0,73.4,89,29.90,10.0,South,5.8,-,N/A,,Overcast,170,2012-09-19 00:03:00
8:20 PM,77.0,73.4,89,29.92,10.0,SSE,6.9,-,0.00,Rain,Light Rain,160,2012-09-19 00:20:00
8:27 PM,77.0,73.4,89,29.92,10.0,SSE,8.1,-,0.00,Rain,Light Rain,160,2012-09-19 00:27:00
8:38 PM,77.0,73.4,89,29.92,10.0,South,8.1,-,0.00,Rain,Light Rain,170,2012-09-19 00:38:00
8:53 PM,77.0,75.0,94,29.93,10.0,South,6.9,-,0.00,,Overcast,170,2012-09-19 00:53:00
9:34 PM,78.8,75.2,89,29.95,10.0,SSW,8.1,-,0.00,Rain,Light Rain,210,2012-09-19 01:34:00
9:48 PM,78.8,73.4,83,29.95,10.0,SSW,10.4,-,0.00,Rain,Light Rain,210,2012-09-19 01:48:00
9:53 PM,78.1,73.9,87,29.96,10.0,SSW,10.4,-,0.00,Rain,Light Rain,210,2012-09-19 01:53:00
10:53 PM,79.0,73.9,84,29.95,10.0,SSW,9.2,-,0.00,,Overcast,200,2012-09-19 02:53:00
11:53 PM,79.0,73.0,82,29.93,10.0,SW,10.4,-,N/A,,Overcast,220,2012-09-19 03:53:00